Mountain Home, AR

6:27 PM CST on January 23, 2018 (GMT -0600)
Baxter County Regional

Weather History for KBPK - February, 2012

Change the Weather History Date:

Tuesday, February 28, 2012

  Actual Average (KFLP) Record (KFLP)
Temperature  
Mean Temperature 54 °F -  
Max Temperature 64 °F 51 °F 78 °F (2006)
Min Temperature 45 °F 33 °F 12 °F (2002)
Degree Days  
Heating Degree Days 10    
Growing Degree Days 4 (Base 50)    
Moisture  
Dew Point 43 °F    
Average Humidity 63    
Maximum Humidity 90    
Minimum Humidity 48    
Precipitation  
Precipitation 0.00 in - - ()
Sea Level Pressure  
Sea Level Pressure 30.05 in    
Wind  
Wind Speed 8 mph (SE)    
Max Wind Speed 14 mph    
Max Gust Speed 21 mph    
Visibility 9 miles    
Events      
Averages and records for this station are not official NWS values.
T = Trace of Precipitation, MM = Missing Value Source: NWS Daily Summary

Daily Weather History Graph

Daily Weather History Graph

Search for Another Location

Airport or City:

Trip Planner

Search our weather history database for the weather conditions in past years. The results will help you decide how hot, cold, wet, or windy it might be!

Date:

Astronomy

Feb. 28, 2012 Rise Set
Actual Time 6:42 AM CST 6:03 PM CST
Civil Twilight 6:16 AM CST 6:29 PM CST
Nautical Twilight 5:46 AM CST 6:58 PM CST
Astronomical Twilight 5:16 AM CST 7:28 PM CST
Moon 10:02 AM CST (2/28) No Moon Set
Length of Visible Light 12h 12m
Length of Day
11h 20m
Waxing Crescent, 38% of the Moon is Illuminated
Feb 28
Waxing Crescent
Feb 29
First Quarter
Mar 8
Full
Mar 14
Last Quarter
Mar 22
New

Hourly Weather History & Observations

Time (CST) Temp. Windchill Dew Point Humidity Pressure Visibility Wind Dir Wind Speed Gust Speed Precip Events Conditions
12:53 AM 46.9 °F - 28.9 °F 50% 30.30 in 10.0 mi ESE 6.9 mph - N/A   Clear
1:53 AM 46.9 °F - 28.0 °F 48% 30.30 in 10.0 mi East 6.9 mph - N/A   Mostly Cloudy
2:53 AM 46.0 °F 41.9 °F 28.0 °F 50% 30.27 in 10.0 mi East 8.1 mph - N/A   Overcast
3:53 AM 46.0 °F 42.5 °F 28.0 °F 50% 30.26 in 10.0 mi East 6.9 mph - N/A   Overcast
4:53 AM 46.0 °F 41.9 °F 28.0 °F 50% 30.25 in 10.0 mi East 8.1 mph - N/A   Overcast
5:53 AM 46.0 °F 42.5 °F 28.0 °F 50% 30.25 in 10.0 mi East 6.9 mph - N/A   Overcast
6:53 AM 45.0 °F 41.8 °F 28.9 °F 53% 30.23 in 9.0 mi East 5.8 mph - N/A   Mostly Cloudy
7:53 AM 46.9 °F - 30.0 °F 52% 30.22 in 10.0 mi ESE 8.1 mph - N/A   Overcast
8:32 AM 48.2 °F - 30.2 °F 50% 30.22 in 9.0 mi ESE 9.2 mph - N/A   Overcast
8:53 AM 48.0 °F - 30.0 °F 50% 30.22 in 9.0 mi ESE 6.9 mph - N/A   Overcast
9:24 AM 48.2 °F - 30.2 °F 50% 30.21 in 9.0 mi ESE 6.9 mph - N/A   Overcast
9:53 AM 51.1 °F - 32.0 °F 48% 30.19 in 9.0 mi ESE 5.8 mph - N/A   Overcast
10:41 AM 53.6 °F - 35.6 °F 51% 30.17 in 10.0 mi East 5.8 mph - N/A   Overcast
10:53 AM 55.0 °F - 36.0 °F 49% 30.17 in 9.0 mi SE 5.8 mph - N/A   Overcast
11:53 AM 57.0 °F - 37.9 °F 49% 30.14 in 9.0 mi ESE 6.9 mph - N/A   Overcast
12:53 PM 60.1 °F - 42.1 °F 51% 30.09 in 9.0 mi SSE 9.2 mph - N/A   Overcast
1:10 PM 62.6 °F - 44.6 °F 52% 30.08 in 9.0 mi SSE 10.4 mph - N/A   Overcast
1:26 PM 62.6 °F - 44.6 °F 52% 30.06 in 9.0 mi ESE 13.8 mph 20.7 mph N/A   Overcast
1:53 PM 64.0 °F - 48.0 °F 56% 30.03 in 9.0 mi SSE 12.7 mph - N/A   Overcast
2:11 PM 64.4 °F - 48.2 °F 56% 30.02 in 9.0 mi SSE 11.5 mph - N/A   Overcast
2:53 PM 63.0 °F - 50.0 °F 63% 29.98 in 9.0 mi SE 12.7 mph 18.4 mph N/A   Overcast
3:53 PM 62.1 °F - 51.1 °F 67% 29.96 in 9.0 mi SE 10.4 mph - N/A   Overcast
4:53 PM 61.0 °F - 52.0 °F 72% 29.91 in 8.0 mi SSE 11.5 mph 19.6 mph N/A   Overcast
5:53 PM 59.0 °F - 54.0 °F 83% 29.92 in 8.0 mi SSE 9.2 mph 16.1 mph N/A   Overcast
6:53 PM 57.9 °F - 53.1 °F 84% 29.90 in 7.0 mi SSE 8.1 mph - N/A   Overcast
7:53 PM 57.9 °F - 54.0 °F 87% 29.88 in 7.0 mi Calm Calm - N/A   Overcast
8:53 PM 60.1 °F - 57.0 °F 90% 29.82 in 6.0 mi SSE 11.5 mph - 0.00 in   Overcast
9:53 PM 63.0 °F - 59.0 °F 87% 29.82 in 7.0 mi South 12.7 mph 19.6 mph N/A   Overcast
10:02 PM 62.6 °F - 59.0 °F 88% 29.81 in 7.0 mi South 11.5 mph - N/A   Overcast
10:53 PM 64.9 °F - 60.1 °F 84% 29.79 in 8.0 mi South 13.8 mph 19.6 mph N/A   Overcast
11:31 PM 64.4 °F - 60.8 °F 88% 29.77 in 8.0 mi South 12.7 mph 19.6 mph N/A   Mostly Cloudy
11:42 PM 64.4 °F - 60.8 °F 88% 29.76 in 8.0 mi South 11.5 mph 20.7 mph N/A   Mostly Cloudy
11:53 PM 64.9 °F - 60.1 °F 84% 29.73 in 8.0 mi South 11.5 mph 20.7 mph N/A   Mostly Cloudy